Time,TemperatureF,DewpointF,PressureIn,WindDirection,WindDirectionDegrees,WindSpeedMPH,WindSpeedGustMPH,Humidity,HourlyPrecipIn,Conditions,Clouds,dailyrainin,SoftwareType,DateUTC
2013-09-28 00:00:00,52.8,50.0,30.14,NE,56,0.0,0.0,90,0.00,,CLR,0.00,VWS V14.01,2013-09-28 04:00:00,
2013-09-28 00:01:00,52.8,50.0,30.14,NE,56,0.0,0.0,90,0.00,,CLR,0.00,VWS V14.01,2013-09-28 04:01:00,
2013-09-28 00:02:00,52.8,50.0,30.14,NE,56,0.0,0.0,90,0.00,,CLR,0.00,VWS V14.01,2013-09-28 04:02:00,
2013-09-28 00:07:00,52.6,49.8,30.14,NE,56,0.0,0.0,90,0.00,,CLR,0.00,VWS V14.01,2013-09-28 04:07:00,
2013-09-28 00:12:00,52.5,50.0,30.14,NE,56,0.0,0.0,91,0.00,,CLR,0.00,VWS V14.01,2013-09-28 04:12:00,
2013-09-28 00:15:00,52.5,50.0,30.14,NE,56,0.0,0.0,91,0.00,,CLR,0.00,VWS V14.01,2013-09-28 04:15:00,
2013-09-28 00:17:00,52.5,50.0,30.14,NE,56,0.0,0.0,91,0.00,,CLR,0.00,VWS V14.01,2013-09-28 04:17:00,
2013-09-28 00:22:00,52.3,49.8,30.14,NE,56,0.0,0.0,91,0.00,,CLR,0.00,VWS V14.01,2013-09-28 04:22:00,
2013-09-28 00:27:00,52.2,49.7,30.14,NE,56,0.0,0.0,91,0.00,,CLR,0.00,VWS V14.01,2013-09-28 04:27:00,
2013-09-28 00:30:00,52.2,49.7,30.14,NE,56,0.0,0.0,91,0.00,,CLR,0.00,VWS V14.01,2013-09-28 04:30:00,
2013-09-28 00:32:00,52.2,49.7,30.14,NE,56,0.0,0.0,91,0.00,,CLR,0.00,VWS V14.01,2013-09-28 04:32:00,
2013-09-28 00:37:00,52.0,49.8,30.14,NE,56,0.0,0.0,92,0.00,,CLR,0.00,VWS V14.01,2013-09-28 04:37:00,
2013-09-28 00:42:00,51.9,49.7,30.14,NE,56,0.0,0.0,92,0.00,,CLR,0.00,VWS V14.01,2013-09-28 04:42:00,
2013-09-28 00:45:00,51.9,49.7,30.14,NE,56,0.0,0.0,92,0.00,,CLR,0.00,VWS V14.01,2013-09-28 04:45:00,
2013-09-28 00:47:00,51.9,49.7,30.14,NE,56,0.0,0.0,92,0.00,,CLR,0.00,VWS V14.01,2013-09-28 04:47:00,
2013-09-28 00:52:00,51.7,49.5,30.14,NE,56,0.0,0.0,92,0.00,,CLR,0.00,VWS V14.01,2013-09-28 04:52:00,
2013-09-28 00:57:00,51.7,49.5,30.14,NE,56,0.0,0.0,92,0.00,,CLR,0.00,VWS V14.01,2013-09-28 04:57:00,
2013-09-28 01:00:00,51.7,49.5,30.14,NE,56,0.0,0.0,92,0.00,,CLR,0.00,VWS V14.01,2013-09-28 05:00:00,
2013-09-28 01:02:00,51.6,49.4,30.14,NE,56,0.0,0.0,92,0.00,,CLR,0.00,VWS V14.01,2013-09-28 05:02:00,
2013-09-28 01:07:00,51.4,49.2,30.14,NE,56,0.0,0.0,92,0.00,,CLR,0.00,VWS V14.01,2013-09-28 05:07:00,
2013-09-28 01:12:00,51.3,49.1,30.14,NE,56,0.0,0.0,92,0.00,,CLR,0.00,VWS V14.01,2013-09-28 05:12:00,
2013-09-28 01:15:00,51.3,49.1,30.14,NE,56,0.0,0.0,92,0.00,,CLR,0.00,VWS V14.01,2013-09-28 05:15:00,
2013-09-28 01:17:00,51.3,49.1,30.14,NE,56,0.0,0.0,92,0.00,,CLR,0.00,VWS V14.01,2013-09-28 05:17:00,
2013-09-28 01:22:00,51.1,48.9,30.14,NE,56,0.0,0.0,92,0.00,,CLR,0.00,VWS V14.01,2013-09-28 05:22:00,
2013-09-28 01:27:00,51.1,49.2,30.14,NE,56,0.0,0.0,93,0.00,,CLR,0.00,VWS V14.01,2013-09-28 05:27:00,
2013-09-28 01:30:00,51.1,49.2,30.14,NE,56,0.0,0.0,93,0.00,,CLR,0.00,VWS V14.01,2013-09-28 05:30:00,
2013-09-28 01:32:00,51.1,49.2,30.14,NE,56,0.0,0.0,93,0.00,,CLR,0.00,VWS V14.01,2013-09-28 05:32:00,
2013-09-28 01:37:00,51.0,49.0,30.14,NE,56,0.0,0.0,93,0.00,,CLR,0.00,VWS V14.01,2013-09-28 05:37:00,
2013-09-28 01:42:00,50.7,48.8,30.14,NE,56,0.0,0.0,93,0.00,,CLR,0.00,VWS V14.01,2013-09-28 05:42:00,
2013-09-28 01:45:00,50.5,48.6,30.14,NE,56,0.0,0.0,93,0.00,,CLR,0.00,VWS V14.01,2013-09-28 05:45:00,
2013-09-28 01:47:00,50.5,48.6,30.14,NE,56,0.0,0.0,93,0.00,,CLR,0.00,VWS V14.01,2013-09-28 05:47:00,
2013-09-28 01:52:00,50.5,48.6,30.14,NE,56,0.0,0.0,93,0.00,,CLR,0.00,VWS V14.01,2013-09-28 05:52:00,
2013-09-28 01:57:00,50.5,48.6,30.14,NE,56,0.0,0.0,93,0.00,,CLR,0.00,VWS V14.01,2013-09-28 05:57:00,
2013-09-28 02:00:00,50.5,48.6,30.14,NE,56,0.0,0.0,93,0.00,,CLR,0.00,VWS V14.01,2013-09-28 06:00:00,
2013-09-28 02:02:00,50.5,48.6,30.14,NE,56,0.0,0.0,93,0.00,,,0.00,VWS V14.01,2013-09-28 06:02:00,
2013-09-28 02:07:00,50.4,48.5,30.14,NE,56,0.0,0.0,93,0.00,,,0.00,VWS V14.01,2013-09-28 06:07:00,
2013-09-28 02:12:00,50.4,48.5,30.14,NE,56,0.0,0.0,93,0.00,,,0.00,VWS V14.01,2013-09-28 06:12:00,
2013-09-28 02:15:00,50.2,48.3,30.14,NE,56,0.0,0.0,93,0.00,,CLR,0.00,VWS V14.01,2013-09-28 06:15:00,
2013-09-28 02:17:00,50.2,48.3,30.14,NE,56,0.0,0.0,93,0.00,,,0.00,VWS V14.01,2013-09-28 06:17:00,
2013-09-28 02:22:00,50.1,48.2,30.14,NE,56,0.0,0.0,93,0.00,,,0.00,VWS V14.01,2013-09-28 06:22:00,
2013-09-28 02:27:00,49.9,48.0,30.14,NE,56,0.0,0.0,93,0.00,,,0.00,VWS V14.01,2013-09-28 06:27:00,
2013-09-28 02:30:00,49.9,48.0,30.14,NE,56,0.0,0.0,93,0.00,,CLR,0.00,VWS V14.01,2013-09-28 06:30:00,
2013-09-28 02:32:00,49.9,48.0,30.14,NE,56,0.0,0.0,93,0.00,,,0.00,VWS V14.01,2013-09-28 06:32:00,
2013-09-28 02:37:00,49.8,47.9,30.14,NE,56,0.0,0.0,93,0.00,,,0.00,VWS V14.01,2013-09-28 06:37:00,
2013-09-28 02:42:00,49.8,47.9,30.14,NE,56,0.0,0.0,93,0.00,,,0.00,VWS V14.01,2013-09-28 06:42:00,
2013-09-28 02:45:00,49.6,47.7,30.14,NE,56,0.0,0.0,93,0.00,,CLR,0.00,VWS V14.01,2013-09-28 06:45:00,
2013-09-28 02:47:00,49.6,47.7,30.14,NE,56,0.0,0.0,93,0.00,,,0.00,VWS V14.01,2013-09-28 06:47:00,
2013-09-28 02:52:00,49.5,47.6,30.14,NE,56,0.0,0.0,93,0.00,,,0.00,VWS V14.01,2013-09-28 06:52:00,
2013-09-28 02:57:00,49.5,47.6,30.14,NE,56,0.0,0.0,93,0.00,,,0.00,VWS V14.01,2013-09-28 06:57:00,
2013-09-28 03:00:00,49.4,47.5,30.14,NE,56,0.0,0.0,93,0.00,,CLR,0.00,VWS V14.01,2013-09-28 07:00:00,
2013-09-28 03:02:00,49.4,47.5,30.14,NE,56,0.0,0.0,93,0.00,,,0.00,VWS V14.01,2013-09-28 07:02:00,
2013-09-28 03:07:00,49.4,47.8,30.14,NE,56,0.0,0.0,94,0.00,,,0.00,VWS V14.01,2013-09-28 07:07:00,
2013-09-28 03:12:00,49.4,47.8,30.14,NE,56,0.0,0.0,94,0.00,,,0.00,VWS V14.01,2013-09-28 07:12:00,
2013-09-28 03:15:00,49.4,47.8,30.14,NE,56,0.0,0.0,94,0.00,,CLR,0.00,VWS V14.01,2013-09-28 07:15:00,
2013-09-28 03:17:00,49.2,47.5,30.14,NE,56,0.0,0.0,94,0.00,,,0.00,VWS V14.01,2013-09-28 07:17:00,
2013-09-28 03:22:00,49.2,47.5,30.14,NE,56,0.0,0.0,94,0.00,,,0.00,VWS V14.01,2013-09-28 07:22:00,
2013-09-28 03:27:00,49.4,47.8,30.14,NE,56,0.0,0.0,94,0.00,,,0.00,VWS V14.01,2013-09-28 07:27:00,
2013-09-28 03:30:00,49.4,47.8,30.14,NE,56,0.0,0.0,94,0.00,,CLR,0.00,VWS V14.01,2013-09-28 07:30:00,
2013-09-28 03:32:00,49.4,47.8,30.14,NE,56,0.0,0.0,94,0.00,,,0.00,VWS V14.01,2013-09-28 07:32:00,
2013-09-28 03:37:00,49.4,47.8,30.14,NE,56,0.0,0.0,94,0.00,,,0.00,VWS V14.01,2013-09-28 07:37:00,
2013-09-28 03:42:00,49.4,47.8,30.14,NE,56,0.0,0.0,94,0.00,,,0.00,VWS V14.01,2013-09-28 07:42:00,
2013-09-28 03:45:00,49.4,47.8,30.14,NE,56,0.0,0.0,94,0.00,,CLR,0.00,VWS V14.01,2013-09-28 07:45:00,
2013-09-28 03:47:00,49.4,47.8,30.14,NE,56,0.0,0.0,94,0.00,,,0.00,VWS V14.01,2013-09-28 07:47:00,
2013-09-28 03:52:00,49.2,47.5,30.14,NE,56,0.0,0.0,94,0.00,,,0.00,VWS V14.01,2013-09-28 07:52:00,
2013-09-28 03:57:00,49.1,47.5,30.14,NE,56,0.0,0.0,94,0.00,,,0.00,VWS V14.01,2013-09-28 07:57:00,
2013-09-28 04:00:00,49.1,47.5,30.14,NE,56,0.0,0.0,94,0.00,,CLR,0.00,VWS V14.01,2013-09-28 08:00:00,
2013-09-28 04:02:00,49.1,47.5,30.14,NE,56,0.0,0.0,94,0.00,,,0.00,VWS V14.01,2013-09-28 08:02:00,
2013-09-28 04:07:00,48.9,47.2,30.14,NE,56,0.0,0.0,94,0.00,,,0.00,VWS V14.01,2013-09-28 08:07:00,
2013-09-28 04:12:00,48.9,47.2,30.14,NE,56,0.0,0.0,94,0.00,,,0.00,VWS V14.01,2013-09-28 08:12:00,
2013-09-28 04:15:00,48.9,47.2,30.14,NE,56,0.0,0.0,94,0.00,,CLR,0.00,VWS V14.01,2013-09-28 08:15:00,
2013-09-28 04:17:00,48.9,47.2,30.14,NE,56,0.0,0.0,94,0.00,,,0.00,VWS V14.01,2013-09-28 08:17:00,
2013-09-28 04:22:00,48.9,47.2,30.14,NE,56,0.0,0.0,94,0.00,,,0.00,VWS V14.01,2013-09-28 08:22:00,
2013-09-28 04:27:00,48.9,47.5,30.14,NE,56,0.0,0.0,95,0.00,,,0.00,VWS V14.01,2013-09-28 08:27:00,
2013-09-28 04:30:00,48.9,47.2,30.14,NE,56,0.0,0.0,94,0.00,,CLR,0.00,VWS V14.01,2013-09-28 08:30:00,
2013-09-28 04:32:00,48.8,47.2,30.14,NE,56,0.0,0.0,94,0.00,,,0.00,VWS V14.01,2013-09-28 08:32:00,
2013-09-28 04:37:00,48.8,47.2,30.14,NE,56,0.0,0.0,94,0.00,,,0.00,VWS V14.01,2013-09-28 08:37:00,
2013-09-28 04:42:00,48.8,47.4,30.14,NE,56,0.0,0.0,95,0.00,,,0.00,VWS V14.01,2013-09-28 08:42:00,
2013-09-28 04:45:00,48.8,47.4,30.14,NE,56,0.0,0.0,95,0.00,,CLR,0.00,VWS V14.01,2013-09-28 08:45:00,
2013-09-28 04:47:00,48.6,47.2,30.14,NE,56,0.0,0.0,95,0.00,,,0.00,VWS V14.01,2013-09-28 08:47:00,
2013-09-28 04:52:00,48.6,47.2,30.14,NE,56,0.0,0.0,95,0.00,,,0.00,VWS V14.01,2013-09-28 08:52:00,
2013-09-28 04:57:00,48.6,47.2,30.14,NE,56,0.0,0.0,95,0.00,,,0.00,VWS V14.01,2013-09-28 08:57:00,
2013-09-28 05:00:00,48.5,47.1,30.15,NE,56,0.0,0.0,95,0.00,,CLR,0.00,VWS V14.01,2013-09-28 09:00:00,
2013-09-28 05:02:00,48.5,47.1,30.15,NE,56,0.0,0.0,95,0.00,,,0.00,VWS V14.01,2013-09-28 09:02:00,
2013-09-28 05:07:00,48.5,47.1,30.15,NE,56,0.0,0.0,95,0.00,,,0.00,VWS V14.01,2013-09-28 09:07:00,
2013-09-28 05:12:00,48.3,46.9,30.15,NE,56,0.0,0.0,95,0.00,,,0.00,VWS V14.01,2013-09-28 09:12:00,
2013-09-28 05:15:00,48.2,46.8,30.15,NE,56,0.0,0.0,95,0.00,,CLR,0.00,VWS V14.01,2013-09-28 09:15:00,
2013-09-28 05:17:00,48.2,46.8,30.15,NE,56,0.0,0.0,95,0.00,,,0.00,VWS V14.01,2013-09-28 09:17:00,
2013-09-28 05:22:00,48.0,46.6,30.15,NE,56,0.0,0.0,95,0.00,,,0.00,VWS V14.01,2013-09-28 09:22:00,
2013-09-28 05:27:00,48.0,46.6,30.15,NE,56,0.0,0.0,95,0.00,,,0.00,VWS V14.01,2013-09-28 09:27:00,
2013-09-28 05:30:00,47.9,46.5,30.16,NE,56,0.0,0.0,95,0.00,,CLR,0.00,VWS V14.01,2013-09-28 09:30:00,
2013-09-28 05:32:00,47.9,46.5,30.16,NE,56,0.0,0.0,95,0.00,,,0.00,VWS V14.01,2013-09-28 09:32:00,
2013-09-28 05:37:00,47.9,46.5,30.16,NE,56,0.0,0.0,95,0.00,,,0.00,VWS V14.01,2013-09-28 09:37:00,
2013-09-28 05:42:00,47.7,46.3,30.16,NE,56,0.0,0.0,95,0.00,,,0.00,VWS V14.01,2013-09-28 09:42:00,
2013-09-28 05:45:00,47.7,46.3,30.16,NE,56,0.0,0.0,95,0.00,,CLR,0.00,VWS V14.01,2013-09-28 09:45:00,
2013-09-28 05:47:00,47.7,46.3,30.16,NE,56,0.0,0.0,95,0.00,,,0.00,VWS V14.01,2013-09-28 09:47:00,
2013-09-28 05:52:00,47.6,46.2,30.16,NE,56,0.0,0.0,95,0.00,,,0.00,VWS V14.01,2013-09-28 09:52:00,
2013-09-28 05:57:00,47.6,46.2,30.16,NE,56,0.0,0.0,95,0.00,,,0.00,VWS V14.01,2013-09-28 09:57:00,
2013-09-28 06:00:00,47.6,46.2,30.16,NE,56,0.0,0.0,95,0.00,,CLR,0.00,VWS V14.01,2013-09-28 10:00:00,
2013-09-28 06:02:00,47.6,46.2,30.16,NE,56,0.0,0.0,95,0.00,,,0.00,VWS V14.01,2013-09-28 10:02:00,
2013-09-28 06:07:00,47.4,46.0,30.16,NE,56,0.0,0.0,95,0.00,,,0.00,VWS V14.01,2013-09-28 10:07:00,
2013-09-28 06:12:00,47.4,46.0,30.16,NE,56,0.0,0.0,95,0.00,,,0.00,VWS V14.01,2013-09-28 10:12:00,
2013-09-28 06:15:00,47.4,46.0,30.17,NE,56,0.0,0.0,95,0.00,,CLR,0.00,VWS V14.01,2013-09-28 10:15:00,
2013-09-28 06:17:00,47.4,46.0,30.17,NE,56,0.0,0.0,95,0.00,,,0.00,VWS V14.01,2013-09-28 10:17:00,
2013-09-28 06:22:00,47.4,46.0,30.17,NE,56,0.0,0.0,95,0.00,,,0.00,VWS V14.01,2013-09-28 10:22:00,
2013-09-28 06:27:00,47.3,45.9,30.17,NE,56,0.0,0.0,95,0.00,,,0.00,VWS V14.01,2013-09-28 10:27:00,
2013-09-28 06:30:00,47.3,45.9,30.17,NE,56,0.0,0.0,95,0.00,,CLR,0.00,VWS V14.01,2013-09-28 10:30:00,
2013-09-28 06:38:00,47.1,45.7,30.17,NE,56,0.0,0.0,95,0.00,,,0.00,VWS V14.01,2013-09-28 10:38:00,
2013-09-28 06:43:00,47.0,45.7,30.17,NE,56,0.0,0.0,95,0.00,,,0.00,VWS V14.01,2013-09-28 10:43:00,
2013-09-28 06:45:00,47.0,45.7,30.17,NE,56,0.0,0.0,95,0.00,,CLR,0.00,VWS V14.01,2013-09-28 10:45:00,
2013-09-28 06:48:00,47.0,45.7,30.17,NE,56,0.0,0.0,95,0.00,,,0.00,VWS V14.01,2013-09-28 10:48:00,
2013-09-28 06:53:00,46.8,45.5,30.17,NE,56,0.0,0.0,95,0.00,,,0.00,VWS V14.01,2013-09-28 10:53:00,
2013-09-28 06:58:00,46.8,45.5,30.17,NE,56,0.0,0.0,95,0.00,,,0.00,VWS V14.01,2013-09-28 10:58:00,
2013-09-28 07:00:00,46.8,45.5,30.18,NE,56,0.0,0.0,95,0.00,,CLR,0.00,VWS V14.01,2013-09-28 11:00:00,
2013-09-28 07:03:00,46.7,45.3,30.18,NE,56,0.0,0.0,95,0.00,,,0.00,VWS V14.01,2013-09-28 11:03:00,
2013-09-28 07:08:00,46.7,45.3,30.18,NE,56,0.0,0.0,95,0.00,,,0.00,VWS V14.01,2013-09-28 11:08:00,
2013-09-28 07:13:00,46.5,45.2,30.18,NE,56,0.0,0.0,95,0.00,,,0.00,VWS V14.01,2013-09-28 11:13:00,
2013-09-28 07:15:00,46.5,45.2,30.19,NE,56,0.0,0.0,95,0.00,,CLR,0.00,VWS V14.01,2013-09-28 11:15:00,
2013-09-28 07:18:00,46.5,45.2,30.19,NE,56,0.0,0.0,95,0.00,,,0.00,VWS V14.01,2013-09-28 11:18:00,
2013-09-28 07:23:00,46.4,45.0,30.19,NE,56,0.0,0.0,95,0.00,,,0.00,VWS V14.01,2013-09-28 11:23:00,
2013-09-28 07:28:00,46.4,45.0,30.19,NE,56,0.0,0.0,95,0.00,,,0.00,VWS V14.01,2013-09-28 11:28:00,
2013-09-28 07:30:00,46.4,45.0,30.19,NE,56,0.0,0.0,95,0.00,,CLR,0.00,VWS V14.01,2013-09-28 11:30:00,
2013-09-28 07:33:00,46.2,44.8,30.19,NE,56,0.0,0.0,95,0.00,,,0.00,VWS V14.01,2013-09-28 11:33:00,
2013-09-28 07:38:00,46.1,44.8,30.19,NE,56,0.0,0.0,95,0.00,,,0.00,VWS V14.01,2013-09-28 11:38:00,
2013-09-28 07:43:00,46.1,44.8,30.19,NE,56,0.0,0.0,95,0.00,,,0.00,VWS V14.01,2013-09-28 11:43:00,
2013-09-28 07:45:00,46.1,44.8,30.20,NE,56,0.0,0.0,95,0.00,,CLR,0.00,VWS V14.01,2013-09-28 11:45:00,
2013-09-28 07:48:00,46.0,44.7,30.20,NE,56,0.0,0.0,95,0.00,,,0.00,VWS V14.01,2013-09-28 11:48:00,
2013-09-28 07:53:00,46.1,44.8,30.20,NE,56,0.0,0.0,95,0.00,,,0.00,VWS V14.01,2013-09-28 11:53:00,
2013-09-28 07:58:00,46.2,44.8,30.20,NE,56,0.0,0.0,95,0.00,,,0.00,VWS V14.01,2013-09-28 11:58:00,
2013-09-28 08:00:00,46.2,44.8,30.20,NE,56,0.0,0.0,95,0.00,,CLR,0.00,VWS V14.01,2013-09-28 12:00:00,
2013-09-28 08:03:00,46.5,45.2,30.20,NE,56,0.0,0.0,95,0.00,,,0.00,VWS V14.01,2013-09-28 12:03:00,
2013-09-28 08:08:00,46.8,45.7,30.20,NE,56,0.0,0.0,96,0.00,,,0.00,VWS V14.01,2013-09-28 12:08:00,
2013-09-28 08:13:00,47.3,46.2,30.20,NE,56,0.0,0.0,96,0.00,,,0.00,VWS V14.01,2013-09-28 12:13:00,
2013-09-28 08:15:00,47.4,46.3,30.21,NE,56,0.0,0.0,96,0.00,,CLR,0.00,VWS V14.01,2013-09-28 12:15:00,
2013-09-28 08:18:00,48.0,47.2,30.21,NE,56,0.0,0.0,97,0.00,,,0.00,VWS V14.01,2013-09-28 12:18:00,
2013-09-28 08:23:00,48.8,48.8,30.21,NE,56,0.0,0.0,100,0.00,,,0.00,VWS V14.01,2013-09-28 12:23:00,
2013-09-28 08:28:00,49.5,49.5,30.21,NE,56,0.0,0.0,100,0.00,,,0.00,VWS V14.01,2013-09-28 12:28:00,
2013-09-28 08:30:00,49.8,49.8,30.21,NE,56,0.0,0.0,100,0.00,,CLR,0.00,VWS V14.01,2013-09-28 12:30:00,
2013-09-28 08:33:00,50.2,50.2,30.21,NE,56,0.0,0.0,100,0.00,,,0.00,VWS V14.01,2013-09-28 12:33:00,
2013-09-28 08:38:00,50.7,50.7,30.21,NE,56,0.0,0.0,100,0.00,,,0.00,VWS V14.01,2013-09-28 12:38:00,
2013-09-28 08:43:00,51.1,51.1,30.21,NE,56,0.0,0.0,100,0.00,,,0.00,VWS V14.01,2013-09-28 12:43:00,
2013-09-28 08:45:00,51.3,51.0,30.21,NE,56,0.0,0.0,99,0.00,,CLR,0.00,VWS V14.01,2013-09-28 12:45:00,
2013-09-28 08:48:00,51.6,51.3,30.21,NE,56,0.0,0.0,99,0.00,,,0.00,VWS V14.01,2013-09-28 12:48:00,
2013-09-28 08:53:00,52.2,51.9,30.21,NE,56,0.0,0.0,99,0.00,,,0.00,VWS V14.01,2013-09-28 12:53:00,
2013-09-28 08:58:00,52.8,52.8,30.21,NE,56,0.0,0.0,100,0.00,,,0.00,VWS V14.01,2013-09-28 12:58:00,
2013-09-28 09:00:00,52.9,52.9,30.21,ENE,58,0.0,0.0,100,0.00,,CLR,0.00,VWS V14.01,2013-09-28 13:00:00,
2013-09-28 09:03:00,53.5,53.2,30.21,NE,56,0.0,0.0,99,0.00,,CLR,0.00,VWS V14.01,2013-09-28 13:03:00,
2013-09-28 09:08:00,53.9,53.1,30.21,NE,56,0.0,0.0,97,0.00,,CLR,0.00,VWS V14.01,2013-09-28 13:08:00,
2013-09-28 09:13:00,54.4,53.0,30.21,NE,56,0.0,0.0,95,0.00,,CLR,0.00,VWS V14.01,2013-09-28 13:13:00,
2013-09-28 09:15:00,54.5,53.1,30.21,NE,56,0.0,0.0,95,0.00,,CLR,0.00,VWS V14.01,2013-09-28 13:15:00,
2013-09-28 09:18:00,55.0,53.6,30.21,NE,56,0.0,0.0,95,0.00,,CLR,0.00,VWS V14.01,2013-09-28 13:18:00,
2013-09-28 09:23:00,55.7,54.3,30.21,NE,56,0.0,0.0,95,0.00,,CLR,0.00,VWS V14.01,2013-09-28 13:23:00,
2013-09-28 09:28:00,56.5,54.5,30.21,ENE,58,0.0,0.0,93,0.00,,CLR,0.00,VWS V14.01,2013-09-28 13:28:00,
2013-09-28 09:30:00,56.7,54.4,30.21,ENE,58,0.0,0.0,92,0.00,,CLR,0.00,VWS V14.01,2013-09-28 13:30:00,
2013-09-28 09:33:00,57.3,54.4,30.21,ENE,58,0.0,0.0,90,0.00,,CLR,0.00,VWS V14.01,2013-09-28 13:33:00,
2013-09-28 09:38:00,58.3,54.8,30.21,ENE,58,0.0,0.0,88,0.00,,CLR,0.00,VWS V14.01,2013-09-28 13:38:00,
2013-09-28 09:43:00,58.9,54.4,30.21,ENE,58,0.0,0.0,85,0.00,,CLR,0.00,VWS V14.01,2013-09-28 13:43:00,
2013-09-28 09:45:00,59.0,54.2,30.21,ENE,58,0.0,0.0,84,0.00,,CLR,0.00,VWS V14.01,2013-09-28 13:45:00,
2013-09-28 09:48:00,59.5,55.0,30.21,ENE,58,0.0,0.0,85,0.00,,CLR,0.00,VWS V14.01,2013-09-28 13:48:00,
2013-09-28 09:53:00,60.1,54.9,30.21,ENE,58,0.0,0.0,83,0.00,,CLR,0.00,VWS V14.01,2013-09-28 13:53:00,
2013-09-28 09:58:00,60.7,54.8,30.21,ENE,58,0.0,0.0,81,0.00,,CLR,0.00,VWS V14.01,2013-09-28 13:58:00,
2013-09-28 10:00:00,61.0,55.1,30.21,ENE,58,0.0,0.0,81,0.00,,CLR,0.00,VWS V14.01,2013-09-28 14:00:00,
2013-09-28 10:03:00,61.5,55.3,30.21,ENE,58,0.0,0.0,80,0.00,,CLR,0.00,VWS V14.01,2013-09-28 14:03:00,
2013-09-28 10:08:00,62.1,55.2,30.21,ENE,58,0.0,0.0,78,0.00,,CLR,0.00,VWS V14.01,2013-09-28 14:08:00,
2013-09-28 10:13:00,62.7,55.8,30.21,ENE,58,0.0,0.0,78,0.00,,CLR,0.00,VWS V14.01,2013-09-28 14:13:00,
2013-09-28 10:15:00,62.9,55.6,30.21,ENE,58,0.0,0.0,77,0.00,,CLR,0.00,VWS V14.01,2013-09-28 14:15:00,
2013-09-28 10:18:00,63.4,55.7,30.21,ENE,58,0.0,0.0,76,0.00,,CLR,0.00,VWS V14.01,2013-09-28 14:18:00,
2013-09-28 10:23:00,64.0,56.3,30.21,ENE,58,0.0,0.0,76,0.00,,CLR,0.00,VWS V14.01,2013-09-28 14:23:00,
2013-09-28 10:28:00,64.8,56.3,30.21,ENE,58,0.0,0.0,74,0.00,,CLR,0.00,VWS V14.01,2013-09-28 14:28:00,
2013-09-28 10:30:00,65.2,56.7,30.21,ENE,58,0.0,0.0,74,0.00,,CLR,0.00,VWS V14.01,2013-09-28 14:30:00,
2013-09-28 10:33:00,65.5,56.6,30.21,ENE,68,0.0,0.0,73,0.00,,CLR,0.00,VWS V14.01,2013-09-28 14:33:00,
2013-09-28 10:38:00,66.3,57.0,30.21,ENE,68,0.0,0.0,72,0.00,,CLR,0.00,VWS V14.01,2013-09-28 14:38:00,
2013-09-28 10:43:00,66.8,57.1,30.21,ENE,68,0.0,0.0,71,0.00,,CLR,0.00,VWS V14.01,2013-09-28 14:43:00,
2013-09-28 10:45:00,66.9,57.2,30.20,ENE,68,0.0,0.0,71,0.00,,CLR,0.00,VWS V14.01,2013-09-28 14:45:00,
2013-09-28 10:48:00,67.6,57.9,30.20,ENE,68,0.0,0.0,71,0.00,,CLR,0.00,VWS V14.01,2013-09-28 14:48:00,
2013-09-28 10:53:00,67.8,56.9,30.20,ENE,68,0.0,0.0,68,0.00,,CLR,0.00,VWS V14.01,2013-09-28 14:53:00,
2013-09-28 10:58:00,67.8,57.3,30.20,ENE,68,0.0,0.0,69,0.00,,CLR,0.00,VWS V14.01,2013-09-28 14:58:00,
2013-09-28 11:00:00,67.8,56.9,30.20,ENE,68,0.0,0.0,68,0.00,,CLR,0.00,VWS V14.01,2013-09-28 15:00:00,
2013-09-28 11:03:00,67.9,57.0,30.20,ENE,68,0.0,0.0,68,0.00,,CLR,0.00,VWS V14.01,2013-09-28 15:03:00,
2013-09-28 11:08:00,68.3,56.5,30.20,ENE,69,0.0,0.0,66,0.00,,CLR,0.00,VWS V14.01,2013-09-28 15:08:00,
2013-09-28 11:13:00,68.9,57.9,30.20,ENE,76,0.0,0.0,68,0.00,,CLR,0.00,VWS V14.01,2013-09-28 15:13:00,
2013-09-28 11:15:00,68.9,57.5,30.20,ENE,76,0.0,0.0,67,0.00,,CLR,0.00,VWS V14.01,2013-09-28 15:15:00,
2013-09-28 11:18:00,69.6,58.2,30.20,ENE,76,0.0,0.0,67,0.00,,CLR,0.00,VWS V14.01,2013-09-28 15:18:00,
2013-09-28 11:23:00,70.1,58.2,30.20,NE,55,0.0,1.0,66,0.00,,CLR,0.00,VWS V14.01,2013-09-28 15:23:00,
2013-09-28 11:28:00,70.8,58.0,30.20,NE,55,0.0,1.0,64,0.00,,CLR,0.00,VWS V14.01,2013-09-28 15:28:00,
2013-09-28 11:30:00,70.9,58.1,30.20,NE,55,0.0,1.0,64,0.00,,CLR,0.00,VWS V14.01,2013-09-28 15:30:00,
2013-09-28 11:33:00,71.1,57.4,30.20,NE,55,0.0,0.0,62,0.00,,CLR,0.00,VWS V14.01,2013-09-28 15:33:00,
2013-09-28 11:38:00,71.5,57.8,30.20,NE,55,0.0,0.0,62,0.00,,CLR,0.00,VWS V14.01,2013-09-28 15:38:00,
2013-09-28 11:43:00,72.0,57.4,30.20,NE,56,0.0,0.0,60,0.00,,CLR,0.00,VWS V14.01,2013-09-28 15:43:00,
2013-09-28 11:45:00,72.1,57.0,30.19,NE,55,0.0,0.0,59,0.00,,CLR,0.00,VWS V14.01,2013-09-28 15:45:00,
2013-09-28 11:48:00,72.5,58.3,30.19,NE,55,0.0,0.0,61,0.00,,CLR,0.00,VWS V14.01,2013-09-28 15:48:00,
2013-09-28 11:53:00,72.8,57.7,30.19,NE,55,0.0,0.0,59,0.00,,CLR,0.00,VWS V14.01,2013-09-28 15:53:00,
2013-09-28 11:58:00,73.2,57.1,30.19,NE,56,0.0,0.0,57,0.00,,CLR,0.00,VWS V14.01,2013-09-28 15:58:00,
2013-09-28 12:00:00,73.3,58.1,30.19,SW,234,0.0,3.0,59,0.00,,CLR,0.00,VWS V14.01,2013-09-28 16:00:00,
2013-09-28 12:03:00,73.3,58.1,30.19,SW,234,0.0,3.0,59,0.00,,CLR,0.00,VWS V14.01,2013-09-28 16:03:00,
2013-09-28 12:08:00,73.9,56.7,30.19,SW,229,0.0,3.0,55,0.00,,CLR,0.00,VWS V14.01,2013-09-28 16:08:00,
2013-09-28 12:13:00,74.2,56.5,30.19,SSE,167,0.0,5.0,54,0.00,,CLR,0.00,VWS V14.01,2013-09-28 16:13:00,
2013-09-28 12:15:00,74.2,56.0,30.18,SSE,167,0.0,5.0,53,0.00,,CLR,0.00,VWS V14.01,2013-09-28 16:15:00,
2013-09-28 12:18:00,74.4,56.7,30.18,SSE,167,0.0,1.0,54,0.00,,CLR,0.00,VWS V14.01,2013-09-28 16:18:00,
2013-09-28 12:23:00,74.7,57.0,30.18,SSW,195,0.0,5.0,54,0.00,,CLR,0.00,VWS V14.01,2013-09-28 16:23:00,
2013-09-28 12:28:00,74.7,54.8,30.18,SSW,193,0.0,5.0,50,0.00,,CLR,0.00,VWS V14.01,2013-09-28 16:28:00,
2013-09-28 12:30:00,74.7,53.7,30.18,ESE,104,0.0,5.0,48,0.00,,CLR,0.00,VWS V14.01,2013-09-28 16:30:00,
2013-09-28 12:33:00,74.7,55.4,30.18,SE,127,0.0,2.0,51,0.00,,CLR,0.00,VWS V14.01,2013-09-28 16:33:00,
2013-09-28 12:38:00,74.9,55.0,30.18,SE,143,0.0,5.0,50,0.00,,CLR,0.00,VWS V14.01,2013-09-28 16:38:00,
2013-09-28 12:43:00,75.3,55.4,30.18,ESE,106,0.0,5.0,50,0.00,,CLR,0.00,VWS V14.01,2013-09-28 16:43:00,
2013-09-28 12:45:00,75.6,56.8,30.18,ESE,107,0.0,5.0,52,0.00,,CLR,0.00,VWS V14.01,2013-09-28 16:45:00,
2013-09-28 12:48:00,75.8,53.0,30.18,SSW,203,0.0,6.0,45,0.00,,CLR,0.00,VWS V14.01,2013-09-28 16:48:00,
2013-09-28 12:53:00,76.3,55.2,30.18,SSW,203,0.0,6.0,48,0.00,,CLR,0.00,VWS V14.01,2013-09-28 16:53:00,
2013-09-28 12:58:00,76.7,54.4,30.18,SSW,203,0.0,1.0,46,0.00,,CLR,0.00,VWS V14.01,2013-09-28 16:58:00,
2013-09-28 13:00:00,76.7,55.5,30.18,SSW,200,0.0,1.0,48,0.00,,CLR,0.00,VWS V14.01,2013-09-28 17:00:00,
2013-09-28 13:03:00,76.7,55.0,30.18,SSW,200,0.0,1.0,47,0.00,,CLR,0.00,VWS V14.01,2013-09-28 17:03:00,
2013-09-28 13:08:00,76.8,56.8,30.18,SE,144,0.0,3.0,50,0.00,,CLR,0.00,VWS V14.01,2013-09-28 17:08:00,
2013-09-28 13:13:00,76.7,54.4,30.18,SE,144,0.0,3.0,46,0.00,,CLR,0.00,VWS V14.01,2013-09-28 17:13:00,
2013-09-28 13:15:00,76.8,54.5,30.18,SE,144,0.0,0.0,46,0.00,,CLR,0.00,VWS V14.01,2013-09-28 17:15:00,
2013-09-28 13:18:00,77.4,55.6,30.18,SE,144,0.0,1.0,47,0.00,,CLR,0.00,VWS V14.01,2013-09-28 17:18:00,
2013-09-28 13:23:00,77.7,54.1,30.18,SSE,160,0.0,1.0,44,0.00,,CLR,0.00,VWS V14.01,2013-09-28 17:23:00,
2013-09-28 13:28:00,77.7,55.9,30.18,WSW,256,5.0,7.0,47,0.00,,CLR,0.00,VWS V14.01,2013-09-28 17:28:00,
2013-09-28 13:30:00,77.7,55.9,30.17,SSW,199,0.0,7.0,47,0.00,,CLR,0.00,VWS V14.01,2013-09-28 17:30:00,
2013-09-28 13:33:00,77.6,56.4,30.17,SE,141,0.0,7.0,48,0.00,,CLR,0.00,VWS V14.01,2013-09-28 17:33:00,
2013-09-28 13:38:00,76.8,56.2,30.17,SE,141,0.0,0.0,49,0.00,,CLR,0.00,VWS V14.01,2013-09-28 17:38:00,
2013-09-28 13:43:00,76.7,54.4,30.17,East,83,0.0,6.0,46,0.00,,CLR,0.00,VWS V14.01,2013-09-28 17:43:00,
2013-09-28 13:45:00,76.7,55.5,30.16,North,350,0.0,6.0,48,0.00,,CLR,0.00,VWS V14.01,2013-09-28 17:45:00,
2013-09-28 13:48:00,77.0,56.4,30.16,NNE,27,0.0,6.0,49,0.00,,CLR,0.00,VWS V14.01,2013-09-28 17:48:00,
2013-09-28 13:53:00,77.7,58.2,30.16,NE,56,0.0,3.0,51,0.00,,CLR,0.00,VWS V14.01,2013-09-28 17:53:00,
2013-09-28 13:58:00,78.3,56.4,30.16,SSE,152,0.0,1.0,47,0.00,,CLR,0.00,VWS V14.01,2013-09-28 17:58:00,
2013-09-28 14:00:00,78.3,55.8,30.15,SSE,152,0.0,1.0,46,0.00,,CLR,0.00,VWS V14.01,2013-09-28 18:00:00,
2013-09-28 14:03:00,78.3,55.8,30.15,SSE,152,0.0,0.0,46,0.00,,CLR,0.00,VWS V14.01,2013-09-28 18:03:00,
2013-09-28 14:09:00,77.9,55.5,30.15,SSE,152,0.0,0.0,46,0.00,,CLR,0.00,VWS V14.01,2013-09-28 18:09:00,
2013-09-28 14:14:00,77.7,54.7,30.15,SSE,152,0.0,0.0,45,0.00,,CLR,0.00,VWS V14.01,2013-09-28 18:14:00,
2013-09-28 14:15:00,77.7,55.9,30.15,SSE,157,0.0,2.0,47,0.00,,CLR,0.00,VWS V14.01,2013-09-28 18:15:00,
2013-09-28 14:19:00,77.2,54.2,30.15,East,89,0.0,2.0,45,0.00,,CLR,0.00,VWS V14.01,2013-09-28 18:19:00,
2013-09-28 14:24:00,76.8,55.1,30.15,ENE,65,0.0,1.0,47,0.00,,CLR,0.00,VWS V14.01,2013-09-28 18:24:00,
2013-09-28 14:29:00,77.0,54.1,30.15,NE,49,0.0,1.0,45,0.00,,CLR,0.00,VWS V14.01,2013-09-28 18:29:00,
2013-09-28 14:30:00,77.0,55.8,30.14,NE,49,0.0,1.0,48,0.00,,CLR,0.00,VWS V14.01,2013-09-28 18:30:00,
2013-09-28 14:34:00,77.0,54.1,30.14,East,79,0.0,2.0,45,0.00,,CLR,0.00,VWS V14.01,2013-09-28 18:34:00,
2013-09-28 14:39:00,76.7,53.2,30.14,East,99,0.0,2.0,44,0.00,,CLR,0.00,VWS V14.01,2013-09-28 18:39:00,
2013-09-28 14:44:00,76.7,52.5,30.14,East,92,0.0,0.0,43,0.00,,CLR,0.00,VWS V14.01,2013-09-28 18:44:00,
2013-09-28 14:45:00,76.8,53.3,30.14,NE,45,3.0,3.0,44,0.00,,CLR,0.00,VWS V14.01,2013-09-28 18:45:00,
2013-09-28 14:49:00,77.2,53.0,30.14,NE,40,0.0,5.0,43,0.00,,CLR,0.00,VWS V14.01,2013-09-28 18:49:00,
2013-09-28 14:54:00,77.6,54.0,30.14,ENE,58,0.0,5.0,44,0.00,,CLR,0.00,VWS V14.01,2013-09-28 18:54:00,
2013-09-28 14:59:00,77.6,53.4,30.14,NNE,31,0.0,1.0,43,0.00,,CLR,0.00,VWS V14.01,2013-09-28 18:59:00,
2013-09-28 15:00:00,77.6,54.0,30.13,NNE,31,0.0,1.0,44,0.00,,CLR,0.00,VWS V14.01,2013-09-28 19:00:00,
2013-09-28 15:04:00,77.6,54.6,30.13,NNE,31,0.0,1.0,45,0.00,,CLR,0.00,VWS V14.01,2013-09-28 19:04:00,
2013-09-28 15:09:00,77.7,53.5,30.13,SSE,161,0.0,2.0,43,0.00,,CLR,0.00,VWS V14.01,2013-09-28 19:09:00,
2013-09-28 15:14:00,77.7,54.7,30.13,SSE,165,0.0,0.0,45,0.00,,CLR,0.00,VWS V14.01,2013-09-28 19:14:00,
2013-09-28 15:15:00,77.7,54.1,30.13,SSE,165,0.0,0.0,44,0.00,,CLR,0.00,VWS V14.01,2013-09-28 19:15:00,
2013-09-28 15:19:00,77.6,53.4,30.13,SE,128,0.0,0.0,43,0.00,,CLR,0.00,VWS V14.01,2013-09-28 19:19:00,
2013-09-28 15:24:00,77.6,53.4,30.13,NE,35,0.0,3.0,43,0.00,,CLR,0.00,VWS V14.01,2013-09-28 19:24:00,
2013-09-28 15:29:00,78.1,53.8,30.12,NNE,31,2.0,3.0,43,0.00,,CLR,0.00,VWS V14.01,2013-09-28 19:29:00,
2013-09-28 15:30:00,78.3,54.0,30.12,NE,47,0.0,6.0,43,0.00,,CLR,0.00,VWS V14.01,2013-09-28 19:30:00,
2013-09-28 15:34:00,78.6,54.9,30.12,NE,42,0.0,6.0,44,0.00,,CLR,0.00,VWS V14.01,2013-09-28 19:34:00,
2013-09-28 15:39:00,78.3,53.3,30.12,SSW,210,3.0,10.0,42,0.00,,CLR,0.00,VWS V14.01,2013-09-28 19:39:00,
2013-09-28 15:44:00,78.3,54.0,30.12,SSW,202,0.0,10.0,43,0.00,,CLR,0.00,VWS V14.01,2013-09-28 19:44:00,
2013-09-28 15:45:00,78.3,54.0,30.12,South,188,0.0,10.0,43,0.00,,CLR,0.00,VWS V14.01,2013-09-28 19:45:00,
2013-09-28 15:49:00,78.1,53.8,30.12,South,184,0.0,5.0,43,0.00,,CLR,0.00,VWS V14.01,2013-09-28 19:49:00,
2013-09-28 15:54:00,78.1,56.2,30.12,South,182,0.0,3.0,47,0.00,,CLR,0.00,VWS V14.01,2013-09-28 19:54:00,
2013-09-28 15:59:00,77.7,54.1,30.12,South,182,0.0,0.0,44,0.00,,CLR,0.00,VWS V14.01,2013-09-28 19:59:00,
2013-09-28 16:00:00,77.7,54.1,30.12,South,182,0.0,0.0,44,0.00,,CLR,0.00,VWS V14.01,2013-09-28 20:00:00,
2013-09-28 16:04:00,77.7,53.5,30.12,South,171,0.0,0.0,43,0.00,,CLR,0.00,VWS V14.01,2013-09-28 20:04:00,
2013-09-28 16:09:00,78.1,52.5,30.12,South,171,0.0,0.0,41,0.00,,CLR,0.00,VWS V14.01,2013-09-28 20:09:00,
2013-09-28 16:14:00,77.9,53.6,30.11,East,88,0.0,0.0,43,0.00,,CLR,0.00,VWS V14.01,2013-09-28 20:14:00,
2013-09-28 16:15:00,77.7,53.5,30.11,East,89,0.0,0.0,43,0.00,,CLR,0.00,VWS V14.01,2013-09-28 20:15:00,
2013-09-28 16:19:00,77.6,53.4,30.11,ESE,123,0.0,1.0,43,0.00,,CLR,0.00,VWS V14.01,2013-09-28 20:19:00,
2013-09-28 16:24:00,77.4,53.2,30.11,South,191,0.0,1.0,43,0.00,,CLR,0.00,VWS V14.01,2013-09-28 20:24:00,
2013-09-28 16:29:00,77.2,54.2,30.11,South,188,0.0,1.0,45,0.00,,CLR,0.00,VWS V14.01,2013-09-28 20:29:00,
2013-09-28 16:30:00,77.2,54.2,30.11,South,188,0.0,1.0,45,0.00,,CLR,0.00,VWS V14.01,2013-09-28 20:30:00,
2013-09-28 16:34:00,77.0,54.1,30.11,South,188,0.0,1.0,45,0.00,,CLR,0.00,VWS V14.01,2013-09-28 20:34:00,
2013-09-28 16:39:00,77.2,53.6,30.11,South,188,0.0,0.0,44,0.00,,CLR,0.00,VWS V14.01,2013-09-28 20:39:00,
2013-09-28 16:44:00,77.2,54.2,30.11,South,188,0.0,1.0,45,0.00,,CLR,0.00,VWS V14.01,2013-09-28 20:44:00,
2013-09-28 16:45:00,77.2,53.0,30.11,South,188,0.0,1.0,43,0.00,,CLR,0.00,VWS V14.01,2013-09-28 20:45:00,
2013-09-28 16:49:00,77.6,55.2,30.11,SSW,196,1.0,1.0,46,0.00,,CLR,0.00,VWS V14.01,2013-09-28 20:49:00,
2013-09-28 16:54:00,77.4,55.0,30.11,SSW,192,0.0,5.0,46,0.00,,CLR,0.00,VWS V14.01,2013-09-28 20:54:00,
2013-09-28 16:59:00,77.0,54.7,30.10,South,191,0.0,0.0,46,0.00,,CLR,0.00,VWS V14.01,2013-09-28 20:59:00,
2013-09-28 17:00:00,77.0,55.2,30.10,South,191,0.0,0.0,47,0.00,,CLR,0.00,VWS V14.01,2013-09-28 21:00:00,
2013-09-28 17:04:00,76.8,55.1,30.10,South,191,0.0,0.0,47,0.00,,CLR,0.00,VWS V14.01,2013-09-28 21:04:00,
2013-09-28 17:09:00,76.8,55.1,30.10,South,184,0.0,3.0,47,0.00,,CLR,0.00,VWS V14.01,2013-09-28 21:09:00,
2013-09-28 17:14:00,76.7,55.5,30.10,South,189,0.0,3.0,48,0.00,,CLR,0.00,VWS V14.01,2013-09-28 21:14:00,
2013-09-28 17:15:00,76.7,55.0,30.10,South,189,0.0,3.0,47,0.00,,CLR,0.00,VWS V14.01,2013-09-28 21:15:00,
2013-09-28 17:19:00,76.5,55.4,30.10,South,179,0.0,2.0,48,0.00,,CLR,0.00,VWS V14.01,2013-09-28 21:19:00,
2013-09-28 17:24:00,76.5,55.4,30.10,South,179,0.0,1.0,48,0.00,,CLR,0.00,VWS V14.01,2013-09-28 21:24:00,
2013-09-28 17:29:00,76.5,55.4,30.10,SSW,192,0.0,3.0,48,0.00,,CLR,0.00,VWS V14.01,2013-09-28 21:29:00,
2013-09-28 17:30:00,76.3,54.6,30.10,SSW,192,0.0,3.0,47,0.00,,CLR,0.00,VWS V14.01,2013-09-28 21:30:00,
2013-09-28 17:34:00,76.5,55.9,30.10,South,189,0.0,3.0,49,0.00,,CLR,0.00,VWS V14.01,2013-09-28 21:34:00,
2013-09-28 17:39:00,76.3,55.2,30.10,ESE,103,0.0,0.0,48,0.00,,CLR,0.00,VWS V14.01,2013-09-28 21:39:00,
2013-09-28 17:44:00,75.8,55.3,30.10,ESE,103,0.0,1.0,49,0.00,,CLR,0.00,VWS V14.01,2013-09-28 21:44:00,
2013-09-28 17:45:00,75.8,55.3,30.10,ESE,102,0.0,1.0,49,0.00,,CLR,0.00,VWS V14.01,2013-09-28 21:45:00,
2013-09-28 17:49:00,75.1,55.2,30.10,East,95,0.0,0.0,50,0.00,,CLR,0.00,VWS V14.01,2013-09-28 21:49:00,
2013-09-28 17:54:00,74.9,55.6,30.10,East,96,0.0,0.0,51,0.00,,CLR,0.00,VWS V14.01,2013-09-28 21:54:00,
2013-09-28 17:59:00,74.7,55.9,30.11,ESE,104,0.0,0.0,52,0.00,,CLR,0.00,VWS V14.01,2013-09-28 21:59:00,
2013-09-28 18:00:00,74.6,55.8,30.11,ESE,104,0.0,0.0,52,0.00,,CLR,0.00,VWS V14.01,2013-09-28 22:00:00,
2013-09-28 18:04:00,74.4,55.7,30.11,ESE,103,0.0,0.0,52,0.00,,CLR,0.00,VWS V14.01,2013-09-28 22:04:00,
2013-09-28 18:09:00,74.2,56.0,30.11,ESE,107,0.0,1.0,53,0.00,,CLR,0.00,VWS V14.01,2013-09-28 22:09:00,
2013-09-28 18:14:00,73.9,55.7,30.11,ESE,116,0.0,1.0,53,0.00,,CLR,0.00,VWS V14.01,2013-09-28 22:14:00,
2013-09-28 18:15:00,73.9,55.7,30.11,ESE,116,0.0,1.0,53,0.00,,CLR,0.00,VWS V14.01,2013-09-28 22:15:00,
2013-09-28 18:19:00,73.7,56.0,30.11,ESE,117,0.0,0.0,54,0.00,,CLR,0.00,VWS V14.01,2013-09-28 22:19:00,
2013-09-28 18:24:00,73.3,55.7,30.11,SSE,160,0.0,0.0,54,0.00,,CLR,0.00,VWS V14.01,2013-09-28 22:24:00,
2013-09-28 18:29:00,73.2,56.1,30.11,SSE,160,0.0,0.0,55,0.00,,CLR,0.00,VWS V14.01,2013-09-28 22:29:00,
2013-09-28 18:30:00,73.0,55.9,30.11,SSE,160,0.0,0.0,55,0.00,,CLR,0.00,VWS V14.01,2013-09-28 22:30:00,
2013-09-28 18:34:00,72.8,55.7,30.11,SSE,160,0.0,0.0,55,0.00,,CLR,0.00,VWS V14.01,2013-09-28 22:34:00,
2013-09-28 18:39:00,72.5,56.4,30.11,SSE,160,0.0,1.0,57,0.00,,CLR,0.00,VWS V14.01,2013-09-28 22:39:00,
2013-09-28 18:44:00,72.1,56.0,30.11,SSE,160,0.0,0.0,57,0.00,,CLR,0.00,VWS V14.01,2013-09-28 22:44:00,
2013-09-28 18:45:00,75.8,55.3,30.10,ESE,102,0.0,1.0,49,0.00,,CLR,0.00,VWS V14.01,2013-09-28 22:45:00,
2013-09-28 18:49:00,71.8,56.2,30.11,SSE,161,0.0,0.0,58,0.00,,CLR,0.00,VWS V14.01,2013-09-28 22:49:00,
2013-09-28 18:54:00,71.5,56.0,30.11,SSE,160,0.0,0.0,58,0.00,,CLR,0.00,VWS V14.01,2013-09-28 22:54:00,
2013-09-28 18:59:00,71.1,56.1,30.11,SSE,161,0.0,0.0,59,0.00,,CLR,0.00,VWS V14.01,2013-09-28 22:59:00,
2013-09-28 19:00:00,74.6,55.8,30.11,ESE,104,0.0,0.0,52,0.00,,CLR,0.00,VWS V14.01,2013-09-28 23:00:00,
2013-09-28 19:04:00,70.8,56.2,30.11,SSE,160,0.0,0.0,60,0.00,,CLR,0.00,VWS V14.01,2013-09-28 23:04:00,
2013-09-28 19:09:00,70.4,56.3,30.11,SSE,160,0.0,0.0,61,0.00,,CLR,0.00,VWS V14.01,2013-09-28 23:09:00,
2013-09-28 19:14:00,70.1,56.5,30.11,SSE,161,0.0,0.0,62,0.00,,CLR,0.00,VWS V14.01,2013-09-28 23:14:00,
2013-09-28 19:15:00,73.9,55.7,30.11,ESE,116,0.0,1.0,53,0.00,,CLR,0.00,VWS V14.01,2013-09-28 23:15:00,
2013-09-28 19:19:00,69.8,56.7,30.11,SSE,160,0.0,0.0,63,0.00,,CLR,0.00,VWS V14.01,2013-09-28 23:19:00,
2013-09-28 19:24:00,69.3,56.6,30.11,SSE,161,0.0,0.0,64,0.00,,CLR,0.00,VWS V14.01,2013-09-28 23:24:00,
2013-09-28 19:29:00,68.8,56.6,30.11,SSE,161,0.0,0.0,65,0.00,,CLR,0.00,VWS V14.01,2013-09-28 23:29:00,
2013-09-28 19:30:00,73.0,55.9,30.11,SSE,160,0.0,0.0,55,0.00,,CLR,0.00,VWS V14.01,2013-09-28 23:30:00,
2013-09-28 19:34:00,68.4,56.2,30.11,SSE,161,0.0,0.0,65,0.00,,CLR,0.00,VWS V14.01,2013-09-28 23:34:00,
2013-09-28 19:39:00,67.9,56.1,30.11,SSE,161,0.0,0.0,66,0.00,,CLR,0.00,VWS V14.01,2013-09-28 23:39:00,
2013-09-28 19:44:00,67.4,56.1,30.11,SSE,161,0.0,0.0,67,0.00,,CLR,0.00,VWS V14.01,2013-09-28 23:44:00,
2013-09-28 19:45:00,72.1,56.0,30.11,SSE,161,0.0,0.0,57,0.00,,CLR,0.00,VWS V14.01,2013-09-28 23:45:00,
2013-09-28 19:49:00,66.9,56.0,30.11,SSE,161,0.0,0.0,68,0.00,,CLR,0.00,VWS V14.01,2013-09-28 23:49:00,
2013-09-28 19:54:00,66.4,55.9,30.11,SSE,161,0.0,0.0,69,0.00,,CLR,0.00,VWS V14.01,2013-09-28 23:54:00,
2013-09-28 19:59:00,65.8,55.8,30.11,SSE,161,0.0,0.0,70,0.00,,CLR,0.00,VWS V14.01,2013-09-28 23:59:00,
2013-09-28 20:00:00,71.1,56.1,30.11,SSE,161,0.0,0.0,59,0.00,,CLR,0.00,VWS V14.01,2013-09-29 00:00:00,
2013-09-28 20:04:00,65.3,56.0,30.11,SSE,161,0.0,0.0,72,0.00,,CLR,0.00,VWS V14.01,2013-09-29 00:04:00,
2013-09-28 20:10:00,64.8,55.6,30.11,SSE,161,0.0,0.0,72,0.00,,CLR,0.00,VWS V14.01,2013-09-29 00:10:00,
2013-09-28 20:15:00,64.3,55.5,30.10,SSE,161,0.0,0.0,73,0.00,,CLR,0.00,VWS V14.01,2013-09-29 00:15:00,
2013-09-28 20:20:00,63.9,55.5,30.10,SSE,161,0.0,0.0,74,0.00,,CLR,0.00,VWS V14.01,2013-09-29 00:20:00,
2013-09-28 20:25:00,63.4,55.7,30.10,SSE,161,0.0,0.0,76,0.00,,CLR,0.00,VWS V14.01,2013-09-29 00:25:00,
2013-09-28 20:30:00,62.9,55.6,30.10,SSE,161,0.0,0.0,77,0.00,,CLR,0.00,VWS V14.01,2013-09-29 00:30:00,
2013-09-28 20:35:00,62.4,55.1,30.10,SSE,161,0.0,0.0,77,0.00,,CLR,0.00,VWS V14.01,2013-09-29 00:35:00,
2013-09-28 20:40:00,62.0,55.1,30.10,SSE,161,0.0,0.0,78,0.00,,CLR,0.00,VWS V14.01,2013-09-29 00:40:00,
2013-09-28 20:45:00,61.6,55.0,30.11,SSE,161,0.0,0.0,79,0.00,,CLR,0.00,VWS V14.01,2013-09-29 00:45:00,
2013-09-28 20:50:00,61.3,54.7,30.11,SSE,161,0.0,0.0,79,0.00,,CLR,0.00,VWS V14.01,2013-09-29 00:50:00,
2013-09-28 20:55:00,60.9,54.7,30.11,SSE,161,0.0,0.0,80,0.00,,CLR,0.00,VWS V14.01,2013-09-29 00:55:00,
2013-09-28 21:00:00,60.5,54.7,30.11,SSE,161,0.0,0.0,81,0.00,,CLR,0.00,VWS V14.01,2013-09-29 01:00:00,
2013-09-28 21:06:00,60.1,54.6,30.11,SSE,161,0.0,0.0,82,0.00,,CLR,0.00,VWS V14.01,2013-09-29 01:06:00,
2013-09-28 21:11:00,59.9,54.7,30.11,SSE,161,0.0,0.0,83,0.00,,CLR,0.00,VWS V14.01,2013-09-29 01:11:00,
2013-09-28 21:15:00,64.3,55.5,30.10,SSE,161,0.0,0.0,73,0.00,,CLR,0.00,VWS V14.01,2013-09-29 01:15:00,
2013-09-28 21:16:00,59.5,54.7,30.10,SSE,161,0.0,0.0,84,0.00,,CLR,0.00,VWS V14.01,2013-09-29 01:16:00,
2013-09-28 21:21:00,59.3,54.5,30.10,SSE,161,0.0,0.0,84,0.00,,CLR,0.00,VWS V14.01,2013-09-29 01:21:00,
2013-09-28 21:26:00,59.0,54.2,30.10,SSE,161,0.0,0.0,84,0.00,,CLR,0.00,VWS V14.01,2013-09-29 01:26:00,
2013-09-28 21:30:00,62.9,55.6,30.10,SSE,161,0.0,0.0,77,0.00,,CLR,0.00,VWS V14.01,2013-09-29 01:30:00,
2013-09-28 21:31:00,58.7,53.9,30.10,SSE,161,0.0,0.0,84,0.00,,CLR,0.00,VWS V14.01,2013-09-29 01:31:00,
2013-09-28 21:36:00,58.6,54.1,30.10,SSE,161,0.0,0.0,85,0.00,,CLR,0.00,VWS V14.01,2013-09-29 01:36:00,
2013-09-28 21:41:00,58.4,54.2,30.10,SSE,161,0.0,0.0,86,0.00,,CLR,0.00,VWS V14.01,2013-09-29 01:41:00,
2013-09-28 21:45:00,61.6,55.0,30.11,SSE,161,0.0,0.0,79,0.00,,CLR,0.00,VWS V14.01,2013-09-29 01:45:00,
2013-09-28 21:46:00,58.1,54.3,30.11,SSE,161,0.0,0.0,87,0.00,,CLR,0.00,VWS V14.01,2013-09-29 01:46:00,
2013-09-28 21:51:00,57.8,54.0,30.11,SSE,161,0.0,0.0,87,0.00,,CLR,0.00,VWS V14.01,2013-09-29 01:51:00,
2013-09-28 21:56:00,57.6,53.8,30.11,SSE,161,0.0,0.0,87,0.00,,CLR,0.00,VWS V14.01,2013-09-29 01:56:00,
2013-09-28 22:00:00,60.5,54.7,30.11,SSE,161,0.0,0.0,81,0.00,,CLR,0.00,VWS V14.01,2013-09-29 02:00:00,
2013-09-28 22:01:00,57.3,53.5,30.11,SSE,161,0.0,0.0,87,0.00,,CLR,0.00,VWS V14.01,2013-09-29 02:01:00,
2013-09-28 22:07:00,57.2,53.4,30.11,SSE,161,0.0,0.0,87,0.00,,CLR,0.00,VWS V14.01,2013-09-29 02:07:00,
2013-09-28 22:12:00,56.9,53.4,30.11,SSE,161,0.0,0.0,88,0.00,,CLR,0.00,VWS V14.01,2013-09-29 02:12:00,
2013-09-28 22:15:00,59.6,54.8,30.10,SSE,161,0.0,0.0,84,0.00,,CLR,0.00,VWS V14.01,2013-09-29 02:15:00,
2013-09-28 22:17:00,56.7,53.2,30.10,SSE,161,0.0,0.0,88,0.00,,CLR,0.00,VWS V14.01,2013-09-29 02:17:00,
2013-09-28 22:22:00,56.6,53.1,30.10,SSE,161,0.0,0.0,88,0.00,,CLR,0.00,VWS V14.01,2013-09-29 02:22:00,
2013-09-28 22:27:00,56.6,53.4,30.10,SSE,161,0.0,0.0,89,0.00,,CLR,0.00,VWS V14.01,2013-09-29 02:27:00,
2013-09-28 22:30:00,58.9,54.1,30.10,SSE,161,0.0,0.0,84,0.00,,CLR,0.00,VWS V14.01,2013-09-29 02:30:00,
2013-09-28 22:32:00,56.5,53.3,30.09,SSE,161,0.0,0.0,89,0.00,,CLR,0.00,VWS V14.01,2013-09-29 02:32:00,
2013-09-28 22:37:00,56.3,53.1,30.09,SSE,161,0.0,0.0,89,0.00,,CLR,0.00,VWS V14.01,2013-09-29 02:37:00,
2013-09-28 22:42:00,56.0,52.8,30.09,SSE,161,0.0,0.0,89,0.00,,CLR,0.00,VWS V14.01,2013-09-29 02:42:00,
2013-09-28 22:45:00,58.3,54.5,30.11,SSE,161,0.0,0.0,87,0.00,,CLR,0.00,VWS V14.01,2013-09-29 02:45:00,
2013-09-28 22:47:00,55.7,52.5,30.09,SSE,161,0.0,0.0,89,0.00,,CLR,0.00,VWS V14.01,2013-09-29 02:47:00,
2013-09-28 22:52:00,55.6,52.4,30.09,SSE,161,0.0,0.0,89,0.00,,CLR,0.00,VWS V14.01,2013-09-29 02:52:00,
2013-09-28 22:57:00,55.4,52.5,30.09,SSE,161,0.0,0.0,90,0.00,,CLR,0.00,VWS V14.01,2013-09-29 02:57:00,
2013-09-28 23:00:00,57.5,53.7,30.11,SSE,161,0.0,0.0,87,0.00,,CLR,0.00,VWS V14.01,2013-09-29 03:00:00,
2013-09-28 23:02:00,55.3,52.4,30.09,SSE,161,0.0,0.0,90,0.00,,CLR,0.00,VWS V14.01,2013-09-29 03:02:00,
2013-09-28 23:07:00,55.3,52.4,30.09,SSE,161,0.0,0.0,90,0.00,,CLR,0.00,VWS V14.01,2013-09-29 03:07:00,
2013-09-28 23:12:00,55.1,52.2,30.09,SSE,161,0.0,0.0,90,0.00,,CLR,0.00,VWS V14.01,2013-09-29 03:12:00,
2013-09-28 23:15:00,56.9,53.4,30.10,SSE,161,0.0,0.0,88,0.00,,CLR,0.00,VWS V14.01,2013-09-29 03:15:00,
2013-09-28 23:17:00,55.0,52.1,30.08,SSE,161,0.0,0.0,90,0.00,,CLR,0.00,VWS V14.01,2013-09-29 03:17:00,
2013-09-28 23:22:00,54.8,51.9,30.08,SSE,161,0.0,0.0,90,0.00,,CLR,0.00,VWS V14.01,2013-09-29 03:22:00,
2013-09-28 23:27:00,54.8,52.2,30.08,SSE,161,0.0,0.0,91,0.00,,CLR,0.00,VWS V14.01,2013-09-29 03:27:00,
2013-09-28 23:30:00,56.5,53.3,30.09,SSE,161,0.0,0.0,89,0.00,,CLR,0.00,VWS V14.01,2013-09-29 03:30:00,
2013-09-28 23:32:00,54.8,52.2,30.08,SSE,161,0.0,0.0,91,0.00,,CLR,0.00,VWS V14.01,2013-09-29 03:32:00,
2013-09-28 23:37:00,54.7,52.1,30.08,SSE,161,0.0,0.0,91,0.00,,CLR,0.00,VWS V14.01,2013-09-29 03:37:00,
2013-09-28 23:43:00,54.7,52.1,30.08,SSE,161,0.0,0.0,91,0.00,,CLR,0.00,VWS V14.01,2013-09-29 03:43:00,
2013-09-28 23:45:00,55.9,52.7,30.09,SSE,161,0.0,0.0,89,0.00,,CLR,0.00,VWS V14.01,2013-09-29 03:45:00,
2013-09-28 23:48:00,54.5,51.9,30.08,SSE,161,0.0,0.0,91,0.00,,CLR,0.00,VWS V14.01,2013-09-29 03:48:00,
2013-09-28 23:53:00,54.4,51.8,30.08,SSE,161,0.0,0.0,91,0.00,,CLR,0.00,VWS V14.01,2013-09-29 03:53:00,
2013-09-28 23:58:00,54.2,51.9,30.08,SSE,161,0.0,0.0,92,0.00,,CLR,0.00,VWS V14.01,2013-09-29 03:58:00,